Starlink 31812

operational
NORAD ID: 59800 Int'l Des: 2024-093 Owner: SPXS Country: US Constellation: starlink
LEOCIRCULAR

Starlink 31812について

説明を読み込み中...

リアルタイム位置

3D地球を読み込み中...

次回通過

高度履歴

Altitude vs Time

uPlot chart will show altitude changes over time

軌道要素

1 59800U 24093U 25306.44285184 .00005619 00000-0 21363-3 0 9991
2 59800 43.0008 207.6109 0000760 297.2078 62.8696 15.27566702 83304
Epoch: Nov 2, 2025 • Age: 21 hours

現在のステータス

高度 483.1 km
速度 7.63 km/s
衛星直下点 22.50°N, 161.36°W
打ち上げ日 May 18, 2024
運用期間 1.4 years
タイプ internet

技術仕様

分類 Payload
質量 730.00 kg
乾燥質量 700.00 kg
総質量 730.00 kg
長さ 0.30 m
直径 4.10 m
スパン 29.00 m
形状 Box + pan
製造者 SPXS
バスタイプ Starlink V2M
フェーズステータス In Orbit
所有者/国 SPXS/US

大規模コンステレーション

Loading constellations...